Showing default

ANTELSAT, 40034

Orbit data source: Space-Track

ANTELSAT, 40034 is an Uruguayan payload satellite in SSO that was launched on Thu, 19 Jun 2014 UTC via a DNEPR launch vehicle from the Orenburg, Russia (OREN). Payload-class satellites include a variety of spacecraft equipped with specific instruments for various scientific and technological missions. These include communications satellites like Starlink; space stations such as the ISS; scientific satellites like the Hubble; Earth observation satellites from companies like Planet Labs, Umbra, and HawkEye 360; GPS; miniature CubeSats for education and research; and military/defense satellites.

Loading next visibility...
Identifier
40034, 2014-033AA
Orbit
SSO
Country
Flag of UYUY / URY
Related business
Manufacturer
UdelaR FING
Mission
Non-operational Civil Tech/Com
Bus & Motor
CUBESAT 2U, Unknown motor
Mass
~2 kg wet, ~2 kg dry
Launch date (UTC)
2014-06-19 (12 years ago)
Launch vehicle
DNEPR
Launch site
Orenburg, Russia (OREN)
Object type
Payload
Rocket body
Debris
Shape & HBR
Box + 1 Ant, 0.1 m
Radar Cross Section
0.040 m², Medium (>0.1 m² and < 1m²)

Expand to show TLE details & history
Last TLE update: 10 hours ago

TLE from 10 hours ago
0 ANTELSAT
1 40034U 14033AA  26124.16904530  .00004272  00000-0  43471-3 0  9992
2 40034  97.7731 280.6152 0043205 200.5415 159.4067 14.90588921639256
Epoch: 2026-05-04T04:03Z
TLE epoch observation values (Epoch: 2026-05-04T04:03:25.513Z)
Latitude
-0.00011°
Longitude
-2.30319°
Altitude
627.367 km
Speed
7.53 km/s
True Right ascension
18h 42m 27s
True Declination
0° 00' 00"
Sunlit
Object was in full shadow at epoch
Visualization orbit readout
Latitude
Unknown
Longitude
Unknown
Altitude
Unknown
Speed
Unknown
Apparent Right ascension
Unknown
Apparent Declination
Unknown
Sunlit
N/A
Visualization observer readout
Local Sidereal Time
22:15:08
Azimuth
Unknown
Elevation
Unknown
Doppler factor
Unknown
Orbital elements
Apogee altitude
623.238 km
Perigee altitude
563 km
Semi-major axis
6,971.256 km
Eccentricity
0.00432
Inclination
97.7731°
RAAN
280.6152°
Arg. of periapsis
200.5415°
True anomaly
159.57996°
Mean anomaly
159.4067°
Eccentric anomaly
159.49342°
Mean motion
3.72886 °/min
Orbital period
96.54 mins
BSTAR
0.00043471
Loading maneuver chart data...
Computing Atmospheric mass density...
Loading historical data...
Loading historical data...
Loading historical data...
Loading historical data...
Loading historical data...
Loading historical data...
Loading historical data...

Documentation

Showing up to 5 results
|